This is the latest recevied weather packets stored in our database for station/object WA1TYB-13. If no packets are shown the sender has not sent any weather packets the latest 10 day(s).
| Time | Temp. | Humidity | Pressure | Rain* | Wind** | Luminosity | Snow |
|---|---|---|---|---|---|---|---|
| 1788489104 | 20.56° C | 26% | 1011.2 hPa | 0 mm | - | 0 W/m² | - |
| 1788488803 | 21.11° C | 24% | 1010.6 hPa | 0 mm | - | 0 W/m² | - |
| 1788488500 | 21.11° C | 23% | 1010.8 hPa | 0 mm | - | 0 W/m² | - |
| 1788488196 | 21.67° C | 23% | 1010.7 hPa | 0 mm | - | 0 W/m² | - |
| 1788487891 | 22.22° C | 21% | 1010.8 hPa | 0 mm | - | 0 W/m² | - |
| 1788487587 | 22.22° C | 21% | 1010.5 hPa | 0 mm | - | 0 W/m² | - |
| 1788487281 | 21.67° C | 22% | 1010.5 hPa | 0 mm | - | 2 W/m² | - |
| 1788486975 | 21.67° C | 21% | 1010.5 hPa | 0 mm | - | 4 W/m² | - |
| 1788486674 | 21.67° C | 21% | 1010.3 hPa | 0 mm | - | 6 W/m² | - |
| 1788486374 | 21.67° C | 21% | 1010.4 hPa | 0 mm | - | 11 W/m² | - |
| 1788486069 | 21.67° C | 22% | 1010.4 hPa | 0 mm | - | 15 W/m² | - |
| 1788485766 | 22.22° C | 21% | 1010.5 hPa | 0 mm | - | 17 W/m² | - |
| 1788485462 | 22.78° C | 20% | 1010.4 hPa | 0 mm | - | 21 W/m² | - |
| 1788485162 | 23.33° C | 20% | 1010.7 hPa | 0 mm | - | 23 W/m² | - |
| 1788484856 | 23.33° C | 20% | 1010.4 hPa | 0 mm | - | 30 W/m² | - |
| 1788484555 | 22.78° C | 21% | 1010.3 hPa | 0 mm | - | 29 W/m² | - |
| 1788484259 | 22.78° C | 20% | 1010.2 hPa | 0 mm | - | 35 W/m² | - |
| 1788483947 | 23.33° C | 19% | 1010.4 hPa | 0 mm | - | 37 W/m² | - |
| 1788483643 | 23.33° C | 20% | 1010.4 hPa | 0 mm | - | 43 W/m² | - |
| 1788483343 | 23.33° C | 19% | 1010.1 hPa | 0 mm | - | 46 W/m² | - |
| 1788483038 | 23.33° C | 19% | 1009.9 hPa | 0 mm | - | 38 W/m² | - |
| 1788482734 | 23.33° C | 18% | 1010.1 hPa | 0 mm | - | 43 W/m² | - |
| 1788482428 | 23.33° C | 18% | 1009.9 hPa | 0 mm | - | 46 W/m² | - |
| 1788482125 | 23.33° C | 18% | 1010.1 hPa | 0 mm | - | 47 W/m² | - |
| 1788481820 | 23.33° C | 19% | 1009.8 hPa | 0 mm | - | 49 W/m² | - |
* Rain latest hour (hover to see other rain measurements)
** Current wind speed in m/s (hover to see current wind gust speed)